| time (UTC) | temp F | wind direction | speed MPH | gust MPH | rain 1hr in | rain 24hr in | rain mn in | humidity % | barometer mb |
| 20260503230008 | 57 | 238 | 1.0 | 3.0 | 0.00 | 0.00 | 0.00 | 82 | 1019.5 |
| 20260503225506 | 57 | 238 | 0.0 | 0.0 | 0.00 | 0.00 | 0.00 | 81 | 1019.5 |
| 20260503225005 | 58 | 235 | 0.0 | 3.0 | 0.00 | 0.00 | 0.00 | 81 | 1019.5 |
| 20260503224505 | 58 | 238 | 2.0 | 3.0 | 0.00 | 0.00 | 0.00 | 82 | 1019.6 |
| 20260503221505 | 58 | 238 | 1.0 | 2.0 | 0.00 | 0.00 | 0.00 | 79 | 1019.7 |
| 20260503220505 | 59 | 238 | 0.0 | 1.0 | 0.00 | 0.00 | 0.00 | 81 | 1019.6 |
| 20260503220008 | 58 | 238 | 0.0 | 0.0 | 0.00 | 0.00 | 0.00 | 81 | 1019.5 |
| 20260503214006 | 58 | 236 | 0.0 | 0.0 | 0.00 | 0.00 | 0.00 | 81 | 1019.4 |
| 20260503213505 | 58 | 238 | 0.0 | 0.0 | 0.00 | 0.00 | 0.00 | 82 | 1019.4 |
| 20260503213004 | 58 | 238 | 0.0 | 0.0 | 0.00 | 0.00 | 0.00 | 82 | 1019.4 |
| 20260503212505 | 58 | 238 | 0.0 | 2.0 | 0.00 | 0.00 | 0.00 | 81 | 1019.4 |
| 20260503212004 | 58 | 236 | 0.0 | 2.0 | 0.00 | 0.00 | 0.00 | 81 | 1019.4 |
| 20260503210504 | 59 | 238 | 0.0 | 0.0 | 0.00 | 0.00 | 0.00 | 79 | 1019.3 |
| 20260503205505 | 59 | 237 | 0.0 | 0.0 | 0.00 | 0.00 | 0.00 | 79 | 1019.3 |
| 20260503204505 | 59 | 237 | 0.0 | 0.0 | 0.00 | 0.00 | 0.00 | 79 | 1019.4 |
| 20260503203505 | 60 | 238 | 0.0 | 0.0 | 0.00 | 0.00 | 0.00 | 78 | 1019.4 |
| 20260503203005 | 60 | 238 | 0.0 | 0.0 | 0.00 | 0.00 | 0.00 | 78 | 1019.4 |
| 20260503202505 | 60 | 236 | 0.0 | 0.0 | 0.00 | 0.00 | 0.00 | 78 | 1019.4 |
| 20260503202004 | 60 | 237 | 0.0 | 0.0 | 0.00 | 0.00 | 0.00 | 78 | 1019.4 |
| 20260503201504 | 60 | 238 | 0.0 | 0.0 | 0.00 | 0.00 | 0.00 | 78 | 1019.4 |
| 20260503201005 | 60 | 238 | 0.0 | 0.0 | 0.00 | 0.00 | 0.00 | 78 | 1019.4 |
| 20260503200504 | 60 | 237 | 0.0 | 0.0 | 0.00 | 0.00 | 0.00 | 78 | 1019.3 |
| 20260503193504 | 60 | 238 | 0.0 | 0.0 | 0.00 | 0.00 | 0.00 | 76 | 1018.9 |
| 20260503192505 | 61 | 243 | 0.0 | 0.0 | 0.00 | 0.00 | 0.00 | 75 | 1018.9 |
| 20260503192004 | 62 | 244 | 0.0 | 1.0 | 0.00 | 0.00 | 0.00 | 75 | 1018.9 |
| 20260503191006 | 62 | 242 | 0.0 | 0.0 | 0.00 | 0.00 | 0.00 | 74 | 1018.8 |
| 20260503190504 | 62 | 242 | 0.0 | 3.0 | 0.00 | 0.00 | 0.00 | 74 | 1018.7 |
| 20260503190008 | 62 | 244 | 2.0 | 5.0 | 0.00 | 0.00 | 0.00 | 71 | 1018.6 |
| 20260503184504 | 63 | 267 | 0.0 | 2.0 | 0.00 | 0.00 | 0.00 | 71 | 1018.5 |
| 20260503183504 | 63 | 268 | 0.0 | 0.0 | 0.00 | 0.00 | 0.00 | 71 | 1018.5 |
| 20260503182505 | 63 | 269 | 0.0 | 0.0 | 0.00 | 0.00 | 0.00 | 71 | 1018.5 |
| 20260503182005 | 63 | 261 | 3.0 | 14.0 | 0.00 | 0.00 | 0.00 | 71 | 1018.5 |
| 20260503174504 | 64 | 260 | 6.0 | 22.0 | 0.00 | 0.00 | 0.00 | 67 | 1018.4 |
| 20260503172505 | 65 | 274 | 23.0 | 43.0 | 0.00 | 0.00 | 0.00 | 64 | 1017.9 |
| 20260503172004 | 66 | 268 | 14.0 | 36.0 | 0.00 | 0.00 | 0.00 | 62 | 1017.9 |
| 20260503170503 | 66 | 268 | 13.0 | 36.0 | 0.00 | 0.00 | 0.00 | 59 | 1017.9 |
| 20260503081005 | 66 | 321 | 6.0 | 13.0 | 0.00 | 0.00 | 0.00 | 57 | 1020.8 |
| 20260503071504 | 64 | 340 | 6.0 | 12.0 | 0.00 | 0.00 | 0.00 | 63 | 1021.1 |
| 20260503054005 | 56 | 45 | 3.0 | 6.0 | 0.00 | 0.00 | 0.00 | 72 | 1020.9 |
| 20260503053008 | 55 | 26 | 0.0 | 6.0 | 0.00 | 0.00 | 0.00 | 73 | 1020.8 |
| 20260503052506 | 55 | 28 | 2.0 | 12.0 | 0.00 | 0.00 | 0.00 | 74 | 1020.8 |
| 20260503051505 | 54 | 25 | 9.0 | 12.0 | 0.00 | 0.00 | 0.00 | 75 | 1020.8 |
| 20260503051006 | 54 | 34 | 9.0 | 12.0 | 0.00 | 0.00 | 0.00 | 77 | 1020.7 |
| 20260503050505 | 54 | 26 | 3.0 | 12.0 | 0.00 | 0.00 | 0.00 | 77 | 1020.6 |
| 20260503050008 | 54 | 35 | 7.0 | 12.0 | 0.00 | 0.00 | 0.00 | 78 | 1020.6 |
| 20260503045005 | 53 | 37 | 6.0 | 12.0 | 0.00 | 0.00 | 0.00 | 79 | 1020.6 |
| 20260503044505 | 53 | 44 | 7.0 | 10.0 | 0.00 | 0.00 | 0.00 | 79 | 1020.5 |
| 20260503043008 | 53 | 57 | 6.0 | 12.0 | 0.00 | 0.00 | 0.00 | 80 | 1020.5 |
| 20260503042505 | 54 | 51 | 7.0 | 10.0 | 0.00 | 0.00 | 0.00 | 79 | 1020.5 |
| 20260503041006 | 53 | 64 | 6.0 | 8.0 | 0.00 | 0.00 | 0.00 | 82 | 1020.5 |
| 20260503040505 | 53 | 41 | 5.0 | 6.0 | 0.00 | 0.00 | 0.00 | 82 | 1020.5 |
| 20260503035506 | 53 | 41 | 0.0 | 0.0 | 0.00 | 0.00 | 0.00 | 82 | 1020.5 |
| 20260503034504 | 53 | 41 | 0.0 | 0.0 | 0.00 | 0.00 | 0.00 | 83 | 1020.5 |
| 20260503033505 | 53 | 41 | 5.0 | 9.0 | 0.00 | 0.00 | 0.00 | 82 | 1020.4 |
| 20260503032005 | 53 | 154 | 0.0 | 0.0 | 0.00 | 0.00 | 0.00 | 82 | 1020.5 |
| 20260503030504 | 53 | 153 | 0.0 | 0.0 | 0.00 | 0.00 | 0.00 | 82 | 1020.5 |
| 20260503025005 | 53 | 153 | 0.0 | 0.0 | 0.00 | 0.00 | 0.00 | 81 | 1020.5 |
| 20260503023505 | 54 | 154 | 3.0 | 6.0 | 0.00 | 0.00 | 0.00 | 80 | 1020.4 |
| 20260503023007 | 54 | 154 | 3.0 | 6.0 | 0.00 | 0.00 | 0.00 | 81 | 1020.5 |
| 20260503020007 | 53 | 165 | 5.0 | 7.0 | 0.00 | 0.00 | 0.00 | 82 | 1020.5 |
| 20260503015505 | 53 | 164 | 3.0 | 6.0 | 0.00 | 0.00 | 0.00 | 81 | 1020.5 |
| 20260503014505 | 54 | 192 | 0.0 | 0.0 | 0.00 | 0.00 | 0.00 | 82 | 1020.5 |
| 20260503014005 | 54 | 192 | 0.0 | 0.0 | 0.00 | 0.00 | 0.00 | 82 | 1020.5 |
| 20260503013505 | 54 | 188 | 3.0 | 8.0 | 0.00 | 0.00 | 0.00 | 77 | 1020.7 |
| 20260503010504 | 56 | 129 | 3.0 | 5.0 | 0.00 | 0.00 | 0.00 | 79 | 1020.8 |
| 20260503004005 | 55 | 127 | 2.0 | 8.0 | 0.00 | 0.00 | 0.00 | 79 | 1020.9 |
| 20260503002004 | 55 | 123 | 4.0 | 8.0 | 0.00 | 0.00 | 0.00 | 81 | 1021.4 |
| 20260503001005 | 55 | 120 | 5.0 | 8.0 | 0.00 | 0.00 | 0.00 | 79 | 1021.4 |
| 20260503000504 | 55 | 160 | 3.0 | 7.0 | 0.00 | 0.00 | 0.00 | 80 | 1021.4 |
| 20260503000007 | 55 | 161 | 3.0 | 7.0 | 0.00 | 0.00 | 0.00 | 81 | 1021.5 |
| 20260502235005 | 55 | 162 | 5.0 | 7.0 | 0.00 | 0.00 | 0.00 | 79 | 1021.5 |
| 20260502234504 | 55 | 162 | 2.0 | 5.0 | 0.00 | 0.00 | 0.00 | 79 | 1021.5 |
| 20260502234005 | 56 | 168 | 0.0 | 0.0 | 0.00 | 0.00 | 0.00 | 79 | 1021.5 |
| 20260502232504 | 56 | 160 | 0.0 | 6.0 | 0.00 | 0.00 | 0.00 | 78 | 1021.5 |